This is the latest recevied weather packets stored in our database for station/object KB2KMM. If no packets are shown the sender has not sent any weather packets the latest 10 day(s).
| Time | Temp. | Humidity | Pressure | Rain* | Wind** | Luminosity | Snow |
|---|---|---|---|---|---|---|---|
| 1777791009 | 8.89° C | 38% | 1009.7 hPa | 0 mm | - | - | - |
| 1777790705 | 8.89° C | 38% | 1009.7 hPa | 0 mm | - | - | - |
| 1777790408 | 8.89° C | 38% | 1009.8 hPa | 0 mm | - | - | - |
| 1777790105 | 8.89° C | 38% | 1009.8 hPa | 0 mm | - | - | - |
| 1777789810 | 8.89° C | 38% | 1009.9 hPa | 0 mm | - | - | - |
| 1777789505 | 8.89° C | 39% | 1009.8 hPa | 0 mm | - | - | - |
| 1777789209 | 8.89° C | 40% | 1010 hPa | 0 mm | - | - | - |
| 1777788905 | 8.89° C | 39% | 1010.2 hPa | 0 mm | - | - | - |
| 1777788607 | 9.44° C | 38% | 1010.2 hPa | 0 mm | - | - | - |
| 1777788305 | 9.44° C | 38% | 1009.9 hPa | 0 mm | - | - | - |
| 1777788005 | 9.44° C | 36% | 1009.9 hPa | 0 mm | - | - | - |
| 1777787704 | 9.44° C | 35% | 1010 hPa | 0 mm | - | - | - |
| 1777787410 | 9.44° C | 36% | 1010.3 hPa | 0 mm | - | - | - |
| 1777787105 | 9.44° C | 38% | 1010.1 hPa | 0 mm | - | - | - |
| 1777786809 | 9.44° C | 41% | 1010 hPa | 0 mm | - | - | - |
| 1777786505 | 9.44° C | 41% | 1010 hPa | 0 mm | - | - | - |
| 1777786209 | 9.44° C | 42% | 1010.3 hPa | 0 mm | - | - | - |
| 1777785905 | 9.44° C | 42% | 1010.3 hPa | 0 mm | - | - | - |
| 1777785609 | 9.44° C | 42% | 1010.4 hPa | 0 mm | - | - | - |
| 1777785305 | 9.44° C | 41% | 1010.4 hPa | 0 mm | - | - | - |
| 1777785008 | 9.44° C | 41% | 1010.5 hPa | 0 mm | - | - | - |
| 1777784705 | 9.44° C | 42% | 1010.7 hPa | 0 mm | - | - | - |
| 1777784405 | 9.44° C | 44% | 1010.6 hPa | 0 mm | - | - | - |
| 1777784105 | 9.44° C | 49% | 1010.6 hPa | 0 mm | - | - | - |
| 1777783809 | 9.44° C | 50% | 1010.6 hPa | 0 mm | - | - | - |
* Rain latest hour (hover to see other rain measurements)
** Current wind speed in m/s (hover to see current wind gust speed)